Regional Weather Roundup
Issued by NWS Upton, NY

Current Version | Previous Version | Text Only | Print | Product List | Glossary On
Versions: 1 2 3 4 5 6 7 8 9 10 11 12 13 14 15 16 17 18 19 20 21 22 23 24 25 26 27
000
ASUS41 KOKX 021804
RWROKX

REGIONAL WEATHER ROUNDUP
NATIONAL WEATHER SERVICE NEW YORK NY
200 PM EDT MON MAY 02 2016

NOTE: "FAIR" INDICATES FEW OR NO CLOUDS BELOW 12,000 FEET WITH NO
SIGNIFICANT WEATHER AND/OR OBSTRUCTIONS TO VISIBILITY.

NYZ071-072-176-178-NJZ106-104-021900-
NEW YORK CITY METRO AREA


CITY           SKY/WX    TMP DP  RH WIND       PRES   REMARKS
CENTRAL PARK   CLOUDY    55  48  77 CALM      29.95F
LAGUARDIA APRT CLOUDY    55  48  77 S5        29.93F
KENNEDY INTL   CLOUDY    52  50  93 S3        29.95S
NEWARK/LIBERTY CLOUDY    58  47  66 W3        29.93F
BRNX BOT. GARD   N/A     54  48  82 E2        29.93F
TETERBORO      LGT RAIN  53  48  83 S7        29.92F FOG
$$

NYZ177-179-078>081-021900-
LONG ISLAND NEW YORK

CITY           SKY/WX    TMP DP  RH WIND       PRES   REMARKS
FARMINGDALE    CLOUDY    53  49  86 W3        29.94S
ISLIP          CLOUDY    53  48  83 SW5       29.93F
SHIRLEY        CLOUDY    54  49  83 CALM      29.94F
RIVERHEAD        N/A     52  50  93 CALM      29.93S
WESTHAMPTON    CLOUDY    51  49  92 S6        29.94F
EAST HAMPTON   CLOUDY    54  49  81 SE8       29.92F
MONTAUK POINT    N/A     52  48  86 NW5       29.94S
$$

NYZ052-065-067-021900-
HUDSON VALLEY

CITY           SKY/WX    TMP DP  RH WIND       PRES   REMARKS
WHITE PLAINS   LGT RAIN  51  49  92 S5        29.92F VSB 1
NEWBURGH       LGT RAIN  50  50 100 VRB5      29.92F FOG
MONTGOMERY     CLOUDY    51  48  89 SW5       29.91F
POUGHKEEPSIE   CLOUDY    53  48  83 VRB3      29.91F
ALBANY         DRIZZLE   49  46  90 S6        29.90S FOG
$$

NJZ001-105-106-008-010-013-015-019>022-104-021900-
NEW JERSEY

CITY           SKY/WX    TMP DP  RH WIND       PRES   REMARKS
NEWARK/LIBERTY CLOUDY    58  47  66 W3        29.93F
TETERBORO      LGT RAIN  53  48  83 S7        29.92F FOG
CALDWELL       CLOUDY    52  49  89 CALM      29.93F FOG
MORRISTOWN     LGT RAIN  52  52 100 CALM      29.93F FOG
SOMERVILLE     CLOUDY    53  50  89 S3        29.91F FOG
SUSSEX         CLOUDY    53  48  83 S5        29.92F
ANDOVER          N/A     53  49  86 CALM      29.93S
TRENTON        CLOUDY    53  50  89 CALM      29.93F FOG
MILLVILLE      CLOUDY    61  56  83 SW5       29.92F
ATLANTIC CITY  CLOUDY    59  55  87 SE5       29.92F
WRIGHTSTOWN    CLOUDY    55  53  94 VRB1      29.91F
TOMS RIVER     CLOUDY    55  52  88 SW3       29.94S
BELMAR         CLOUDY    55  51  86 VRB3      29.94F
$$

PAZ047>061-062-071-021900-
EASTERN PENNSYLVANIA

CITY           SKY/WX    TMP DP  RH WIND       PRES   REMARKS
PHILADELPHIA   CLOUDY    56  51  84 VRB5      29.94F FOG
ALLENTOWN      CLOUDY    54  50  86 CALM      29.93S
SCRANTON       CLOUDY    56  50  80 W8        29.89S
$$

CTZ002-004>006-009-010-012-RIZ004-006-007-MAZ004-011-015-021900-
SOUTHERN NEW ENGLAND
 IN CT

CITY           SKY/WX    TMP DP  RH WIND       PRES   REMARKS
BRADLEY INTL   LGT RAIN  48  45  89 CALM      29.92F
HARTFORD       CLOUDY    51  46  83 CALM      29.93S
DANBURY        CLOUDY    51  48  89 SW6       29.93F
WTRBRY/OXFORD  CLOUDY    48  46  93 CALM      29.94S FOG
BRIDGEPORT     CLOUDY    52  47  83 SW3       29.93F
MERIDEN        LGT RAIN  51  46  83 S5        29.93S
NEW HAVEN      CLOUDY    51  49  92 S5        29.93F
CHESTER        CLOUDY    50  50 100 CALM      29.92F
GROTON         CLOUDY    52  52 100 S9        29.91F FOG
WILLIMANTIC    CLOUDY    54  47  77 CALM      29.90F

 IN RI

CITY           SKY/WX    TMP DP  RH WIND       PRES   REMARKS
PROVIDENCE     CLOUDY    55  49  80 VRB3      29.92F
BLOCK ISLAND   CLOUDY    52  51  97 NE6         N/A
WESTERLY       CLOUDY    56  50  80 CALM      29.91F

 IN MA

CITY           SKY/WX    TMP DP  RH WIND       PRES   REMARKS
BOSTON         LGT RAIN  49  48  97 NE14      29.92F FOG
WORCESTER      CLOUDY    46  45  96 E3        29.90F
WESTFIELD      LGT RAIN  49  45  86 CALM      29.92S FOG
PROVINCETOWN   LGT RAIN  50  49  96 SE6       29.95R
NANTUCKET      CLOUDY    54  49  83 S9        29.89S
$$

ANZ330-335-338-340-345-350-353-355-021900-
COASTAL MARINE OBSERVATIONS


STATION/POSITION TIME  SKY/WX   TEMP    WIND        PRES    VSBY  WAVE
                                AIR SEA DIR/SP/G                  HT/PER
                 (UTC)          (F)     (DEG/KT/KT) (MB)    (MI)  (FT/S)
NY HARB ENTRANCE 1650            49 51  140/  4/  6 1013.7          3/ 9
20S FIRE ISLAND  1650            48 49  140/  4/  4 1013.9          4/10
GREAT SOUTH BAY  1700            50 56  170/  4/  4   N/A
23 SSW MONTAUK P 1750            47 49  320/  2/  4 1013.3          4/ 8
15 E BARNEGAT LI 1722               51                N/A           5/11
HUDSON CANYON    1650            50 49              1013.6          5/ 9
KINGS POINT      1700            52 53              1013.6
EXECUTION ROCKS  NOT AVBL
CENTRAL LI SOUND 1700            48      10/  4/  4   N/A           0
EASTERN LI SOUND 1700            50 48  310/  4/  6   N/A
ROBBINS REEF     1700            50     170/  6/  7 1013.7
$$


>>>>>>>>>>>>>>>>>>>>>>>>>>>> KEY <<<<<<<<<<<<<<<<<<<<<<<<<<<
>                                                          <
>     SKY/WX - SKY CONDITION/PRESENT WEATHER               <
>     TMP    - TEMPERATURE IN FAHRENHEIT                   <
>     DP     - DEWPOINT IN FAHRENHEIT                      <
>     RH     - RELATIVE HUMIDITY IN PERCENT                <
>     WIND   - DIRECTION AND SPEED IN MPH                  <
>     PRES   - MEAN SEA LEVEL PRESSURE IN INCHES OF HG     <
>     WCI    - WIND CHILL INDEX                            <
>     VSB    - VISIBILITY IN MILES                         <
>     HX     - HEAT INDEX                                  <
>     TC     - TEMPERATURE IN CELSIUS                      <
>     VRB    - VARIABLE WIND DIRECTION                     <
>                                                          <
>>>>>>>>>>>>>>>>>>>>>>>>>>>> KEY <<<<<<<<<<<<<<<<<<<<<<<<<<<






USA.gov is the U.S. government's official web portal to all federal, state and local government web resources and services.